Regional Weather Roundup
Issued by NWS Albany, NY

Home | Current Version | Previous Version | Graphics & Text | Print | Product List | Glossary Off
Versions: 1 2 3 4 5 6 7 8 9 10 11 12 13 14 15 16 17 18 19 20 21 22 23 24 25 26 27 28 29 30 31 32 33 34 35 36 37 38 39 40 41 42 43 44 45 46 47 48 49 50

000
ASUS41 KALY 222210
RWRALY

NEW YORK STATE HOURLY WEATHER ROUNDUP
NATIONAL WEATHER SERVICE ALBANY NY
500 PM EST SAT NOV 22 2014

NOTE: "FAIR" INDICATES FEW OR NO CLOUDS BELOW 12,000 FEET WITH NO
SIGNIFICANT WEATHER AND/OR NO OBSTRUCTIONS TO VISIBILITY.

NYZ032-033-038>043-046>054-057>066-NYZ062>081-222300-
EAST


CITY           SKY/WX    TMP DP  RH WIND       PRES   REMARKS
ALBANY         LGT RAIN  38  17  42 S9        30.10F WCI  31
GLENS FALLS    CLOUDY    33  19  56 SW7       30.09F WCI  27
POUGHKEEPSIE   CLOUDY    42  11  28 S3        30.20F
NEWBURGH       CLOUDY    39  12  33 SW7       30.20F WCI  34
MONTGOMERY     CLOUDY    40  13  33 SW9       30.18F WCI  34
WHITE PLAINS   MOCLDY    40  14  34 VRB7      30.22F
ISLIP          MOCLDY    42  19  39 SW13      30.23F
NEW YORK CITY  MOCLDY    42  17  36 SW14G24   30.26F
CENTRAL PARK   CLOUDY    42  17  36 VRB6      30.27F
$$

NYZ005>009-017-018-044>046-055-056-222300-
CENTRAL


CITY           SKY/WX    TMP DP  RH WIND       PRES   REMARKS
FULTON         LGT RAIN  35  31  85 SE3       30.01S
SYRACUSE       LGT RAIN  43  33  68 SW10      30.03R
ROME           FRZ RAIN  33  29  85 E9        30.07S WCI  25
ELMIRA         CLOUDY    39  31  72 SW13      30.10S WCI  31
BINGHAMTON     CLOUDY    36  27  69 SW15G26   30.08S WCI  27
MONTICELLO     CLOUDY    34  18  51 SW5       30.17S WCI  30
$$

NYZ026>034-041>043-222300-
NORTH


CITY           SKY/WX    TMP DP  RH WIND       PRES   REMARKS
WATERTOWN      CLOUDY    41  27  57 S12G25    29.96F
FORT DRUM      NOT AVBL
MASSENA        LGT RAIN  36  28  73 SW16G30   29.92R WCI  26
SARANAC LAKE   LGT SNOW  33  29  85 SW17      29.89S FOG     WCI  22
PLATTSBURGH    CLOUDY    35  15  44 S9        29.93R WCI  28
$$

NYZ001>004-010>016-019>021-222300-
WEST


CITY           SKY/WX    TMP DP  RH WIND       PRES   REMARKS
NIAGARA FALLS  CLOUDY    44  39  82 SW18G29   29.98S
BUFFALO        CLOUDY    39  36  89 SW14      29.98F WCI  31
DUNKIRK        CLOUDY    41  38  89 S12G23    30.01S
JAMESTOWN      CLOUDY    36  34  93 S13       30.04S WCI  27
WELLSVILLE     CLOUDY    38  36  92 SW13G21   30.04S WCI  30
ROCHESTER      LGT RAIN  41  36  82 SW16      29.98S
PENN YAN       CLOUDY    42  34  73 S17G25    30.03R
$$

             KEY
       WCI = WIND CHILL INDEX
       VSB = VISIBILITY
       HX  = HEAT INDEX
$$


USA.gov is the U.S. government's official web portal to all federal, state and local government web resources and services.